Weather History for EDTZ - September, 2013

Change the Weather History Date:

Monday, September 23, 2013

  Actual Average Record
Temperature  
Mean Temperature 58 °F -  
Max Temperature 71 °F - - ()
Min Temperature 45 °F - - ()
Degree Days  
Heating Degree Days 7    
Growing Degree Days 8 (Base 50)    
Moisture  
Dew Point 51 °F    
Average Humidity 75    
Maximum Humidity 100    
Minimum Humidity 38    
Precipitation  
Precipitation 0.00 in - - ()
Sea Level Pressure  
Sea Level Pressure 30.26 in    
Wind  
Wind Speed 3 mph ()    
Max Wind Speed 7 mph    
Max Gust Speed -    
Visibility 10.6 miles    
Events Fog    
T = Trace of Precipitation, MM = Missing Value Source: Averaged Metar Reports

Daily Weather History Graph

Daily Weather History Graph

Search for Another Location

Airport or City:

Trip Planner

Search our weather history database for the weather conditions in past years. The results will help you decide how hot, cold, wet, or windy it might be!

Date:

Astronomy

Sep. 23, 2013 Rise Set
Actual Time 7:11 AM CEST 7:19 PM CEST
Civil Twilight 6:40 AM CEST 7:49 PM CEST
Nautical Twilight 6:04 AM CEST 8:25 PM CEST
Astronomical Twilight 5:26 AM CEST 9:02 PM CEST
Moon 9:19 PM CEST (9/23) 11:33 AM CEST (9/23)
Length of Visible Light 13h 09m
Length of Day
12h 07m
Waning Gibbous, 83% of the Moon is Illuminated
Sep 23
Waning Gibbous
Sep 27
Last Quarter
Oct 5
New
Oct 12
First Quarter
Oct 19
Full

Hourly Weather History & Observations

Time (CEST) Temp. Dew Point Humidity Pressure Visibility Wind Dir Wind Speed Gust Speed Precip Events Conditions
12:00 AM 53 °F 52 °F 93% 30.37 in 9 mi North 4.5 mph - -  
1:00 AM 51 °F 50 °F 96% 30.37 in 7 mi North 2.2 mph - -  
2:00 AM 50 °F 49 °F 97% 30.37 in 4 mi North 2.2 mph - -   Mist
3:00 AM 50 °F 49 °F 95% 30.36 in 5 mi NNW 2.2 mph - -  
4:00 AM 49 °F 49 °F 100% 30.35 in 5 mi North 2.2 mph - -  
5:00 AM 47 °F 47 °F 100% 30.35 in 6 mi NNW 2.2 mph - -  
8:00 AM 47 °F 47 °F 98% 30.35 in 1 mi West 2.2 mph - - Fog Light Fog
9:00 AM 50 °F 50 °F 98% 30.34 in 5 mi Calm Calm - -   Partly Cloudy
10:00 AM 56 °F 51 °F 77% 30.32 in 5 mi ESE 4.5 mph - -   Scattered Clouds
11:00 AM 58 °F 51 °F 71% 30.30 in 6 mi SE 2.2 mph - -   Scattered Clouds
12:00 PM 61 °F 51 °F 62% 30.28 in 9 mi SSW 4.5 mph - -   Scattered Clouds
1:00 PM 65 °F 54 °F 58% 30.25 in 10 mi South 4.5 mph - -   Scattered Clouds
2:00 PM 65 °F 52 °F 54% 30.23 in 14 mi SSE 4.5 mph - -   Scattered Clouds
3:00 PM 69 °F 53 °F 45% 30.19 in 16 mi South 2.2 mph - -   Scattered Clouds
4:00 PM 70 °F 50 °F 38% 30.17 in 22 mi SSW 2.2 mph - -   Clear
5:00 PM 71 °F 54 °F 44% 30.15 in 19 mi SW 4.5 mph - -   Clear
6:00 PM 70 °F 52 °F 43% 30.14 in 19 mi South 2.2 mph - -  
7:00 PM 66 °F 54 °F 56% 30.15 in 19 mi SE 2.2 mph - -   Clear
8:00 PM 61 °F 54 °F 71% 30.17 in 22 mi East 2.2 mph - -   Clear
9:00 PM 59 °F 54 °F 79% 30.18 in 19 mi NNE 6.7 mph - -  
10:00 PM 57 °F 53 °F 82% 30.18 in 16 mi SE 2.2 mph - -  
11:00 PM 55 °F 52 °F 88% 30.19 in 19 mi North 4.5 mph - -